TimeCDT,TemperatureF,Dew PointF,Humidity,Sea Level PressureIn,VisibilityMPH,Wind Direction,Wind SpeedMPH,Gust SpeedMPH,PrecipitationIn,Events,Conditions,WindDirDegrees,DateUTC
12:15 AM,44.6,44.6,100,30.22,7.0,North,13.8,-,N/A,,Overcast,360,2012-10-07 05:15:00
12:35 AM,44.6,44.6,100,30.22,9.0,North,12.7,-,N/A,,Overcast,360,2012-10-07 05:35:00
12:55 AM,44.6,44.6,100,30.22,7.0,North,10.4,-,N/A,,Overcast,10,2012-10-07 05:55:00
1:15 AM,44.6,44.6,100,30.22,7.0,North,12.7,-,N/A,,Overcast,10,2012-10-07 06:15:00
1:35 AM,44.6,44.6,100,30.21,10.0,NNE,12.7,-,N/A,,Overcast,20,2012-10-07 06:35:00
1:55 AM,44.6,42.8,93,30.22,10.0,NNE,13.8,-,N/A,,Overcast,20,2012-10-07 06:55:00
2:15 AM,44.6,42.8,93,30.22,10.0,NNE,12.7,-,N/A,,Overcast,20,2012-10-07 07:15:00
2:35 AM,44.6,42.8,93,30.22,10.0,North,10.4,-,N/A,,Overcast,10,2012-10-07 07:35:00
2:55 AM,44.6,42.8,93,30.22,10.0,North,10.4,-,N/A,,Overcast,10,2012-10-07 07:55:00
3:15 AM,44.6,42.8,93,30.23,10.0,North,12.7,-,N/A,,Overcast,10,2012-10-07 08:15:00
3:35 AM,44.6,41.0,87,30.23,10.0,NNE,15.0,-,N/A,,Overcast,30,2012-10-07 08:35:00
3:55 AM,44.6,41.0,87,30.23,10.0,NNE,11.5,-,N/A,,Overcast,20,2012-10-07 08:55:00
4:15 AM,44.6,42.8,93,30.23,10.0,North,13.8,-,N/A,,Overcast,10,2012-10-07 09:15:00
4:35 AM,42.8,41.0,93,30.23,9.0,NNE,12.7,-,N/A,,Overcast,20,2012-10-07 09:35:00
4:55 AM,42.8,39.2,87,30.24,10.0,NNE,15.0,-,N/A,,Overcast,20,2012-10-07 09:55:00
5:15 AM,42.8,37.4,81,30.24,10.0,North,10.4,-,N/A,,Overcast,10,2012-10-07 10:15:00
5:35 AM,42.8,37.4,81,30.23,10.0,North,13.8,-,N/A,,Overcast,10,2012-10-07 10:35:00
5:55 AM,42.8,37.4,81,30.24,10.0,North,10.4,-,N/A,,Overcast,10,2012-10-07 10:55:00
6:15 AM,42.8,37.4,81,30.24,10.0,North,10.4,-,N/A,Rain,Light Rain,10,2012-10-07 11:15:00
6:35 AM,42.8,37.4,81,30.25,10.0,North,8.1,-,N/A,,Overcast,360,2012-10-07 11:35:00
6:55 AM,42.8,39.2,87,30.26,10.0,North,10.4,-,N/A,Rain,Light Rain,10,2012-10-07 11:55:00
7:15 AM,42.8,39.2,87,30.26,10.0,NNE,6.9,-,N/A,,Overcast,20,2012-10-07 12:15:00
7:35 AM,42.8,37.4,81,30.26,8.0,North,9.2,-,N/A,Rain,Light Rain,10,2012-10-07 12:35:00
7:55 AM,42.8,39.2,87,30.26,10.0,NNE,10.4,-,N/A,,Overcast,20,2012-10-07 12:55:00
8:15 AM,42.8,37.4,81,30.27,10.0,NNE,10.4,-,N/A,,Overcast,30,2012-10-07 13:15:00
8:35 AM,42.8,37.4,81,30.26,10.0,NNE,12.7,-,N/A,,Overcast,30,2012-10-07 13:35:00
8:55 AM,44.6,37.4,76,30.27,10.0,North,10.4,-,N/A,,Overcast,10,2012-10-07 13:55:00
9:15 AM,44.6,37.4,76,30.26,10.0,NNE,8.1,-,N/A,,Overcast,30,2012-10-07 14:15:00
9:35 AM,44.6,37.4,76,30.27,10.0,NE,10.4,-,N/A,,Overcast,40,2012-10-07 14:35:00
9:55 AM,44.6,37.4,76,30.27,10.0,NNE,10.4,-,N/A,,Overcast,20,2012-10-07 14:55:00
10:15 AM,44.6,37.4,76,30.28,10.0,NNE,9.2,-,N/A,,Overcast,30,2012-10-07 15:15:00
10:35 AM,44.6,37.4,76,30.28,9.0,NNE,11.5,-,N/A,Rain,Light Rain,20,2012-10-07 15:35:00
10:55 AM,44.6,39.2,81,30.28,10.0,NNE,10.4,-,N/A,Rain,Light Rain,30,2012-10-07 15:55:00
11:15 AM,44.6,37.4,76,30.28,10.0,North,9.2,-,N/A,,Overcast,10,2012-10-07 16:15:00
11:35 AM,46.4,37.4,71,30.27,10.0,NNE,9.2,-,N/A,,Overcast,20,2012-10-07 16:35:00
11:55 AM,46.4,37.4,71,30.26,10.0,NE,11.5,-,N/A,,Overcast,40,2012-10-07 16:55:00
12:15 PM,46.4,37.4,71,30.25,10.0,ENE,9.2,-,N/A,,Overcast,60,2012-10-07 17:15:00
12:35 PM,48.2,37.4,66,30.25,10.0,NNE,9.2,-,N/A,,Overcast,30,2012-10-07 17:35:00
12:55 PM,48.2,37.4,66,30.23,9.0,ENE,6.9,-,N/A,,Overcast,70,2012-10-07 17:55:00
1:15 PM,48.2,37.4,66,30.24,10.0,NNE,6.9,-,N/A,,Overcast,30,2012-10-07 18:15:00
1:35 PM,48.2,37.4,66,30.22,10.0,NE,6.9,-,N/A,,Overcast,40,2012-10-07 18:35:00
1:55 PM,48.2,37.4,66,30.22,10.0,North,6.9,-,N/A,,Overcast,10,2012-10-07 18:55:00
2:35 PM,48.2,37.4,66,30.20,10.0,NE,6.9,-,N/A,,Overcast,50,2012-10-07 19:35:00
2:55 PM,48.2,37.4,66,30.20,10.0,NNE,4.6,-,N/A,,Overcast,30,2012-10-07 19:55:00
3:15 PM,48.2,37.4,66,30.19,10.0,North,8.1,-,N/A,,Overcast,10,2012-10-07 20:15:00
3:35 PM,48.2,37.4,66,30.18,10.0,North,8.1,-,N/A,,Overcast,10,2012-10-07 20:35:00
3:55 PM,50.0,37.4,62,30.18,10.0,NNE,6.9,-,N/A,,Overcast,20,2012-10-07 20:55:00
4:15 PM,50.0,37.4,62,30.18,10.0,NNE,9.2,-,N/A,,Overcast,30,2012-10-07 21:15:00
4:35 PM,50.0,37.4,62,30.17,10.0,NNW,6.9,-,N/A,,Overcast,340,2012-10-07 21:35:00
4:55 PM,48.2,37.4,66,30.18,10.0,North,6.9,-,N/A,,Overcast,10,2012-10-07 21:55:00
5:15 PM,48.2,37.4,66,30.17,10.0,North,10.4,-,N/A,,Overcast,10,2012-10-07 22:15:00
5:35 PM,48.2,37.4,66,30.18,10.0,NE,9.2,-,N/A,,Overcast,40,2012-10-07 22:35:00
5:55 PM,48.2,37.4,66,30.18,10.0,North,9.2,-,N/A,,Overcast,10,2012-10-07 22:55:00
7:15 PM,46.4,37.4,71,30.20,10.0,North,6.9,-,N/A,,Overcast,360,2012-10-08 00:15:00
7:35 PM,46.4,37.4,71,30.20,10.0,NNE,8.1,-,N/A,,Overcast,20,2012-10-08 00:35:00
7:55 PM,46.4,37.4,71,30.21,10.0,NNE,9.2,-,N/A,,Overcast,20,2012-10-08 00:55:00
8:15 PM,46.4,37.4,71,30.22,10.0,NNE,10.4,-,N/A,,Overcast,20,2012-10-08 01:15:00
8:55 PM,46.4,35.6,66,30.23,10.0,NNE,11.5,-,N/A,,Overcast,30,2012-10-08 01:55:00
9:15 PM,46.4,35.6,66,30.23,10.0,NNE,9.2,-,N/A,,Overcast,30,2012-10-08 02:15:00
9:35 PM,46.4,35.6,66,30.23,10.0,NNE,9.2,-,N/A,,Overcast,30,2012-10-08 02:35:00
9:55 PM,46.4,35.6,66,30.23,10.0,ENE,6.9,-,N/A,,Overcast,60,2012-10-08 02:55:00
10:15 PM,46.4,35.6,66,30.23,10.0,ENE,6.9,-,N/A,,Overcast,60,2012-10-08 03:15:00
10:35 PM,46.4,35.6,66,30.24,10.0,NE,6.9,-,N/A,,Overcast,40,2012-10-08 03:35:00
10:55 PM,46.4,35.6,66,30.24,10.0,NNE,8.1,-,N/A,,Overcast,30,2012-10-08 03:55:00
11:15 PM,46.4,35.6,66,30.24,10.0,North,8.1,-,N/A,,Overcast,10,2012-10-08 04:15:00
11:35 PM,46.4,35.6,66,30.24,10.0,NNE,8.1,-,N/A,,Overcast,30,2012-10-08 04:35:00
11:55 PM,46.4,35.6,66,30.22,10.0,ENE,5.8,-,N/A,,Overcast,60,2012-10-08 04:55:00